#timestamp,LO_Frequency,Hit 
1503860415.7,286047004.0,N
1503860435.5,286047002.1,N
1503860455.4,286046998.5,N
1503860475.2,286047002.2,N
1503860495.0,286047000.2,N
1503860495.9,286047000.2,N
1503860515.8,286046997.4,N
1503860535.6,286046995.0,N
1503860555.4,286046993.3,P
1503860575.3,286046997.0,N
1503860595.1,286046999.0,N
1503860596.0,286046999.0,N
1503860615.8,286046997.9,N
1503860635.7,286046996.7,N
1503860655.5,286046998.1,N
1503860675.3,286047001.1,N
1503860695.2,286046997.7,N
1503860715.9,286046997.9,N
1503860735.7,286046996.9,N
1503860755.5,286046997.4,N
1503860775.4,286047000.8,N
1503860795.2,286046998.4,N
1503860815.0,286046998.2,N
1503860815.9,286046998.2,N
1503860835.8,286047001.3,N
1503860855.6,286047003.9,N
1503860875.4,286047001.6,N
1503860895.3,286047005.6,N
1503860915.1,286047006.7,N
1503860916.0,286047006.7,N
1503860935.8,286047005.7,N
1503860955.7,286047002.0,N
1503860975.5,286047000.1,N
1503860995.3,286047000.0,N
1503861015.2,286046999.8,N
1503861035.9,286047002.8,N
1503861055.7,286047001.9,N
1503861075.5,286047002.6,N
1503861095.4,286047000.9,N
1503861115.2,286046999.1,N
1503861135.0,286046998.7,N
1503861135.9,286046998.7,N
1503861155.8,286046998.6,N
1503861175.6,286047000.0,N
1503861195.4,286047002.1,N
1503861215.3,286047000.0,N
1503861235.1,286047001.6,N
1503861255.8,286047001.4,N
1503861275.7,286046998.2,N
1503861295.5,286046999.3,N
1503861315.3,286046999.1,N
1503861335.2,286046997.9,N
1503861355.9,286046999.7,N
1503861375.7,286047005.2,N
1503861395.6,286047004.1,N
1503861415.4,286047001.6,N
1503861435.2,286047002.0,N
1503861455.0,286047003.0,N
1503861456.0,286047003.0,N
1503861475.8,286047003.3,N
1503861495.6,286047004.5,N
1503861515.5,286047006.3,P
1503861535.5,286047003.8,N
1503861555.3,286047005.7,N
1503861575.1,286047004.8,N
1503861595.9,286047003.0,N
1503861615.7,286047005.3,N
1503861635.5,286047005.7,P
1503861655.4,286047002.5,P
1503861675.2,286047000.2,N
1503861695.0,286046999.8,N
1503861695.9,286046999.8,N
1503861715.8,286046999.8,N
1503861735.6,286046998.1,N
1503861755.4,286047000.9,N
1503861775.3,286047000.4,N
1503861795.1,286047000.3,N
1503861796.0,286047000.3,N
1503861815.8,286046998.2,N
1503861835.7,286046998.1,N
1503861855.5,286047000.7,N
1503861875.3,286046999.3,N
1503861895.2,286046997.5,N
1503861915.9,286046995.7,N
1503861935.7,286046995.1,N
1503861955.5,286046996.9,N
1503861975.4,286046998.8,N
1503861995.2,286047001.0,N
1503862015.0,286046997.1,N
1503862015.9,286046997.1,N
1503862035.8,286046994.3,N
1503862055.6,286046987.3,P
1503862075.4,286046989.5,N
1503862095.3,286046991.6,N
1503862115.1,286046993.9,N
1503862135.8,286046995.4,N
1503862155.7,286046996.2,N
1503862175.5,286046993.7,N
1503862195.3,286046995.9,N
1503862215.2,286046995.8,N
1503862235.9,286046994.9,N
1503862255.7,286046999.0,N
1503862275.6,286046999.4,N
1503862295.4,286046999.5,N
1503862315.2,286046996.7,N
1503862335.0,286046996.5,N
1503862336.0,286046996.5,N
1503862355.8,286046995.2,N
1503862375.6,286046995.9,N
1503862395.4,286046996.5,N
1503862415.3,286047001.1,N
1503862435.1,286047000.9,N
1503862455.8,286047003.5,N
1503862475.7,286047004.0,N
1503862495.5,286047004.2,N
1503862515.3,286047003.2,N
1503862535.2,286047001.5,N
1503862555.9,286047002.2,N
1503862575.7,286046999.9,N
1503862595.6,286046999.9,N
1503862615.4,286047003.3,N
1503862635.2,286046999.9,N
1503862655.0,286047000.4,N
1503862655.9,286047000.4,N
1503862675.8,286046998.1,N
1503862695.6,286046996.5,N
1503862715.4,286046999.6,N
1503862735.3,286046998.4,N
1503862755.1,286047000.3,N
1503862775.8,286047001.0,N
1503862795.7,286047000.3,N
1503862815.5,286046999.9,N
1503862835.3,286047000.4,N
1503862855.2,286047001.6,N
1503862875.9,286047002.1,N
1503862895.7,286047000.0,N
1503862915.4,286047000.3,N
1503862935.2,286046998.5,N
1503862955.1,286046998.2,N
1503862956.0,286046998.2,N
1503862975.8,286046998.4,N
1503862995.6,286047000.0,N
1503863015.5,286047002.6,N
1503863035.3,286047002.0,N
1503863055.1,286047000.9,N
1503863075.9,286047002.0,N
1503863095.7,286047004.3,N
1503863115.5,286047005.9,P
1503863135.4,286047005.7,N
1503863155.2,286047008.9,P
1503863175.0,286047006.8,N
1503863175.9,286047006.8,N
1503863195.8,286047004.6,N
1503863215.6,286047005.8,N
1503863235.4,286047004.7,N
1503863255.3,286047005.8,N
1503863275.1,286047003.6,N
1503863276.0,286047003.6,N
1503863295.8,286047001.9,N
1503863315.7,286047005.6,N
1503863335.5,286047005.4,N
1503863355.3,286047003.0,N
1503863375.2,286047005.9,N
1503863395.2,286047004.6,N
1503863415.1,286047006.2,P
1503863416.0,286047006.2,P
1503863435.8,286047004.2,P
1503863455.6,286046999.7,N
1503863475.5,286047000.8,N
1503863495.3,286046998.6,N
1503863515.1,286047001.2,N
1503863535.9,286046999.3,N
1503863555.7,286046999.4,N
1503863575.5,286046997.4,N
1503863595.4,286046998.2,N
1503863615.2,286047000.2,N
1503863635.0,286047000.3,N
1503863635.9,286047000.3,N
1503863655.8,286047001.0,N
1503863675.6,286047002.2,N
1503863695.4,286047005.9,N
1503863715.3,286047005.5,N
1503863735.1,286047002.9,N
1503863736.0,286047002.9,N
1503863755.8,286047005.6,N
1503863775.6,286047005.7,N
1503863795.5,286047005.9,N
1503863815.3,286047001.3,N
1503863835.1,286046999.7,N
1503863855.9,286047002.4,N
1503863875.7,286047001.2,N
1503863895.5,286046999.0,N
1503863915.4,286047000.1,N
1503863935.2,286046999.9,N
1503863955.0,286047002.6,N
1503863955.9,286047002.6,N
1503863975.8,286047002.6,N
1503863995.6,286047001.3,N
